Location: Bailleul
(50.3375°N, 2.8513°E)
Time: 10:01:39
(UTC+00:00)

SL-16 R/B - Pass Details

Date: 16 June 2021
Orbit: 842 x 845 km, 71.0° (Epoch: 01 August)

Event Time Altitude Azimuth Distance (km) Brightness Sun altitude
Rises 21:40:59 0° 225° (SW) 3,391 5.2 -11.0°
Reaches altitude 10° 21:43:30 10° 231° (SW) 2,460 4.5 -11.2°
Maximum altitude 21:48:59 50° 307° (NW) 1,067 3.2 -11.6°
Drops below altitude 10° 21:54:30 10° 22° (NNE) 2,476 5.2 -12.0°
Sets 21:57:03 0° 28° (NNE) 3,415 5.9 -12.2°
